Theta_e
319 312 313 309 296 293 290 295 301 303 304 309 310 322 323 323 322 317 346 351 358 359 361 361 364 364 362 362 362 361 361 362 363 362 362 361 360 361 362 363 363 364 362 362 360 357 356 355 355
318 314 310 300 290 286 289 296 300 303 307 307 307 313 325 325 339 341 344 355 358 358 359 360 363 364 362 361 361 360 360 361 362 361 361 360 361 362 362 363 364 363 362 361 359 357 356 356 355
314 314 306 296 286 287 289 296 298 303 305 304 304 310 319 331 343 342 348 356 357 358 359 360 362 363 362 361 361 360 360 360 361 361 361 360 360 361 362 363 364 364 362 361 358 356 355 355 354
308 307 302 292 288 291 293 295 297 300 304 305 307 304 313 342 344 347 354 357 356 357 359 361 361 363 362 361 360 360 360 360 361 361 360 360 361 361 362 363 363 363 362 360 357 356 355 354 354
306 298 291 286 289 293 297 297 297 297 299 301 303 302 314 338 351 352 354 357 355 356 358 360 361 363 362 362 361 359 359 359 359 360 360 360 360 361 362 362 362 362 361 359 358 356 355 354 353
300 295 287 286 290 294 296 298 298 297 299 301 300 303 323 346 349 351 354 354 356 355 358 359 360 362 361 361 360 359 358 358 358 358 359 360 360 361 361 362 362 362 361 359 358 357 356 354 353
296 291 287 287 291 293 296 299 296 296 298 301 302 302 320 343 349 351 352 354 356 357 357 357 358 360 362 361 360 358 357 357 358 358 358 358 360 360 361 361 362 362 361 359 357 356 355 354 353
299 295 289 290 292 292 299 302 299 299 303 307 309 301 305 334 350 349 348 350 354 355 356 355 356 358 357 357 360 359 357 357 357 359 358 358 359 360 360 359 360 360 359 358 357 355 355 354 352
300 292 287 290 292 296 300 300 305 308 304 307 308 308 310 320 349 345 345 347 351 355 354 355 355 355 354 355 357 359 358 358 358 358 358 355 353 355 357 357 360 359 358 357 356 356 354 352 352
294 288 290 297 298 296 300 300 302 303 303 304 306 310 322 342 346 341 343 343 345 349 351 353 354 352 353 354 354 354 353 353 352 353 353 352 352 351 354 356 359 358 357 357 356 354 353 352 341
293 289 294 298 299 300 299 299 302 300 299 302 303 307 312 345 344 343 343 344 343 347 351 352 352 353 352 352 352 351 352 352 351 351 351 350 350 351 348 348 354 351 356 348 351 348 346 342 339
291 298 298 297 301 299 298 301 301 302 300 305 306 307 307 332 336 343 344 345 343 344 348 351 351 351 351 353 350 349 349 349 348 350 349 346 346 347 343 346 347 348 347 343 343 342 341 340 339
293 296 298 300 299 299 301 300 300 301 304 306 307 306 305 310 331 336 343 345 346 345 346 349 350 349 348 348 350 349 347 347 347 347 347 344 343 343 339 342 346 342 342 340 340 339 337 336 336
297 297 298 298 298 296 297 298 299 302 304 305 305 304 303 305 315 323 328 345 347 346 346 349 348 347 347 347 348 348 347 347 346 347 345 340 340 340 341 340 342 339 339 338 336 335 334 333 332
297 293 295 296 296 295 298 295 296 301 304 302 303 304 305 305 305 313 317 336 347 348 346 347 348 347 348 347 348 348 347 346 345 345 342 338 337 335 340 339 339 339 337 336 333 332 332 332 333
291 289 284 292 294 295 295 288 298 302 300 300 302 303 305 305 305 306 310 321 341 348 345 347 349 348 348 346 347 347 347 346 344 344 341 339 339 337 337 339 338 339 335 334 330 331 331 331 330
284 281 283 286 292 293 293 290 297 300 298 298 300 301 303 304 304 305 309 314 334 346 345 345 346 346 347 346 347 347 346 345 344 344 343 338 337 340 338 339 339 335 333 333 332 330 331 329 328
281 281 283 284 289 291 289 291 295 297 296 297 298 300 302 303 305 306 307 310 332 344 343 344 344 344 346 346 345 344 344 344 342 342 342 339 336 341 339 339 338 336 333 332 331 329 329 328 328
286 284 283 287 290 288 289 290 292 293 293 295 297 298 299 302 305 307 306 310 329 338 339 339 337 342 340 341 338 338 337 339 337 338 340 338 335 338 339 338 336 334 335 333 331 330 327 327 336
287 284 283 286 290 289 288 287 290 291 293 295 296 297 299 300 302 306 306 307 326 333 336 337 336 339 341 341 340 338 337 337 336 336 338 338 337 336 341 340 337 335 334 331 329 328 325 327 336
285 284 284 285 289 289 286 284 286 291 293 294 296 298 299 299 300 302 304 304 314 332 334 335 335 338 340 339 336 334 333 330 329 332 336 339 338 336 340 340 339 336 335 332 329 328 327 331 333
283 289 289 288 284 280 286 278 286 289 290 291 293 292 296 300 300 300 301 302 307 332 334 335 335 337 338 337 334 332 331 329 331 333 336 339 339 337 340 341 338 337 334 332 332 330 328 334 330
286 292 289 288 285 281 284 278 281 286 286 289 290 302 303 304 306 306 307 307 304 322 333 334 334 336 338 336 334 334 330 331 331 331 333 336 338 339 339 341 340 337 336 332 332 328 333 332 330
293 288 287 284 280 272 280 279 281 284 286 296 300 303 305 306 306 308 309 309 302 307 333 333 333 332 336 337 334 334 332 330 329 329 332 335 336 338 339 340 341 340 337 334 332 332 335 333 330
289 282 273 273 272 273 283 281 282 294 297 298 299 301 304 306 306 307 307 308 308 302 323 334 333 331 333 335 337 334 334 333 330 331 332 335 335 335 337 338 338 338 337 336 334 335 336 334 330
285 283 274 271 273 276 287 281 284 296 299 299 300 300 302 302 303 306 307 309 308 308 309 336 334 333 334 336 335 338 336 335 336 335 336 335 336 336 337 337 337 338 338 337 336 335 337 334 332
287 285 290 284 282 279 280 286 293 296 295 295 295 297 297 299 301 304 306 309 310 310 306 332 337 335 336 337 338 337 339 338 337 337 338 340 339 338 337 338 337 337 339 338 338 336 336 333 331
291 293 284 282 275 274 279 283 285 289 290 292 292 292 295 297 298 301 303 308 311 314 314 311 311 334 337 338 340 340 338 340 341 339 339 338 341 341 338 339 338 337 338 341 339 337 334 332 330
287 287 289 287 284 277 275 278 291 290 290 290 290 293 294 295 296 298 301 306 310 312 315 316 316 315 317 338 340 341 340 339 342 342 339 340 342 344 341 341 340 338 338 340 340 336 333 330 329
293 289 289 282 279 284 282 282 296 290 290 292 291 292 293 295 296 298 301 304 306 307 309 311 316 316 316 319 333 341 342 341 341 341 340 340 342 345 344 343 342 342 341 340 339 334 332 331 329
Wind_Speed
4 4 1 4 3 5 4 9 3 4 4 1 2 3 13 3 7 6 4 12 18 20 17 18 19 19 22 22 22 20 19 18 18 17 17 18 19 19 19 18 17 15 15 14 14 12 12 12 11
3 1 4 3 5 1 7 5 15 4 4 10 7 5 4 8 4 6 11 15 23 21 18 17 21 19 21 22 22 22 21 20 19 18 18 18 19 19 18 17 16 15 15 15 13 12 12 12 11
2 2 4 4 4 7 8 8 2 4 7 3 7 6 3 5 2 10 7 17 21 19 18 18 24 19 21 21 22 22 21 21 20 19 18 18 18 17 17 16 15 15 16 14 12 11 9 11 10
2 5 5 3 9 9 7 3 5 8 9 3 7 10 10 6 4 6 21 21 20 17 16 25 26 21 21 22 22 22 23 22 21 20 18 17 17 16 15 15 14 14 15 14 12 10 9 7 7
4 3 1 3 8 7 8 4 5 6 7 4 6 7 7 5 7 13 21 22 21 17 16 21 26 22 21 21 22 22 22 22 21 20 19 18 16 15 15 14 14 13 13 13 11 9 7 6 5
4 3 2 7 9 6 6 6 4 2 6 8 6 5 8 3 9 10 9 14 20 21 17 19 24 21 21 20 21 21 21 21 22 21 20 18 18 16 15 14 13 12 11 11 9 7 6 5 4
7 5 5 5 10 8 3 6 3 4 7 7 3 6 7 6 2 13 13 9 11 14 17 18 17 17 21 20 19 20 19 20 20 20 19 19 18 17 15 14 13 12 11 10 9 7 7 6 6
5 4 3 4 6 9 3 10 5 3 15 7 8 6 14 4 9 9 11 10 10 10 12 17 15 13 12 12 19 19 19 19 18 18 18 18 17 17 15 13 13 12 11 11 9 9 8 7 8
3 3 2 4 3 9 7 11 9 9 8 7 5 11 12 27 18 12 12 8 11 12 13 14 14 14 11 10 13 17 21 20 18 17 16 13 7 9 11 10 12 12 11 11 10 8 8 7 7
4 3 4 6 4 10 19 19 22 17 23 14 16 11 13 8 19 22 20 17 18 19 21 18 16 15 14 10 11 9 10 8 8 9 10 6 8 6 7 10 12 12 11 10 9 8 7 7 2
1 4 4 8 10 10 13 13 15 16 22 8 14 20 7 5 5 7 13 20 24 16 14 17 19 18 18 12 9 6 6 6 5 8 10 10 8 7 3 3 4 4 9 3 5 4 3 4 2
4 6 6 5 8 9 14 11 16 18 11 12 13 14 7 8 8 7 9 8 15 19 16 16 16 19 16 12 10 9 8 8 7 8 12 8 7 8 4 4 4 5 3 4 4 3 4 4 2
4 4 4 9 8 10 16 15 16 26 8 11 16 13 10 9 12 10 7 8 6 12 18 18 16 15 15 14 11 11 10 9 8 9 11 7 7 8 5 4 5 4 3 3 4 4 3 2 4
6 7 10 7 11 7 11 15 10 17 7 9 12 13 10 11 13 7 11 12 12 12 14 17 18 16 15 14 15 12 11 10 8 8 9 8 7 7 6 5 5 4 4 4 4 4 3 4 4
5 6 8 6 6 9 7 10 10 8 12 8 9 11 12 10 9 11 12 13 17 15 11 14 15 15 14 15 15 14 12 11 9 8 9 9 7 7 8 6 5 5 4 5 3 2 2 3 3
5 3 5 7 12 9 3 12 8 9 14 14 9 10 13 11 10 10 9 10 16 19 19 16 14 15 15 13 12 12 12 11 10 9 8 11 10 9 6 6 6 5 4 4 3 3 3 4 2
5 7 8 8 7 9 5 14 7 12 10 14 7 8 12 11 10 10 10 13 13 19 20 20 19 18 17 14 12 12 11 9 10 10 9 11 11 9 8 7 6 6 5 4 4 3 3 2 1
8 7 7 11 9 13 12 16 9 10 9 13 13 8 10 13 14 12 9 14 10 17 17 19 14 15 17 10 9 7 8 8 8 9 9 12 9 10 9 6 6 6 5 4 3 4 3 1 2
8 6 7 14 11 7 11 12 13 11 9 9 10 11 10 13 13 12 8 13 9 13 17 19 17 16 12 12 12 11 12 10 7 8 12 12 11 12 10 6 6 6 7 7 7 4 5 2 3
7 8 8 8 8 10 15 18 16 11 11 8 9 15 12 11 14 14 10 11 10 15 20 20 21 19 16 13 12 8 10 9 9 7 8 11 14 14 11 9 8 7 5 6 6 5 3 2 4
3 6 7 11 13 9 10 14 9 12 9 15 9 11 15 10 11 12 13 10 11 15 18 21 22 24 21 17 7 3 4 4 4 7 8 10 12 13 13 10 8 7 7 6 6 6 7 5 1
5 4 10 15 6 12 4 14 27 15 17 12 10 8 11 10 8 9 11 9 10 17 18 22 24 22 21 20 14 15 14 11 10 10 9 10 12 13 13 12 10 9 6 6 7 6 4 5 5
8 12 13 10 13 6 8 5 7 6 10 11 7 6 8 10 11 13 15 14 11 8 14 16 18 20 21 19 19 16 14 10 6 7 11 11 10 13 14 14 12 10 7 6 7 7 6 3 5
11 9 8 3 3 3 5 1 7 11 7 10 14 12 12 10 13 13 14 17 9 6 8 12 16 16 17 17 17 18 18 14 8 10 10 10 8 9 11 13 12 11 9 8 6 6 8 6 4
8 7 6 8 5 6 4 6 6 12 14 14 10 12 14 13 15 17 20 19 14 9 8 12 15 14 13 14 17 16 15 14 14 13 11 12 9 8 12 11 11 8 9 8 7 6 7 8 6
4 1 4 6 4 9 9 4 4 6 9 11 10 11 15 18 16 17 19 19 16 15 10 11 15 17 16 14 14 13 14 10 8 11 9 10 10 11 12 12 12 12 10 9 8 7 5 7 6
5 3 4 6 4 5 5 5 2 12 14 18 22 21 20 20 21 19 20 21 19 16 12 10 13 14 18 20 16 15 15 14 12 9 10 10 9 8 10 13 13 12 12 11 11 7 8 7 7
4 1 3 2 5 5 6 4 4 13 17 18 21 21 20 20 22 21 19 18 21 17 14 11 6 6 11 16 18 15 17 15 12 9 12 11 12 10 11 12 13 11 12 12 12 7 8 10 6
2 3 4 4 4 4 5 6 2 9 13 16 15 18 18 17 18 17 18 17 13 16 17 15 14 12 7 6 10 13 15 15 12 11 9 11 12 14 14 15 15 14 13 12 12 10 12 10 10
4 3 4 4 3 4 4 6 4 4 7 11 14 18 17 16 15 16 16 14 16 13 14 17 15 14 12 9 5 9 9 11 13 12 9 8 12 13 15 14 14 15 14 14 13 15 14 15 12
Wind_Direction
330 306 110 52 57 65 249 250 250 260 297 15 79 156 208 254 189 211 113 144 134 142 155 157 153 143 137 136 135 132 129 126 125 126 127 130 133 135 133 133 133 133 133 130 127 129 128 121 120
330 46 42 83 104 167 254 226 239 227 258 341 333 266 240 277 307 119 128 155 146 146 154 158 158 148 144 141 139 137 135 133 132 131 132 136 137 137 135 134 135 137 137 134 135 137 134 127 125
344 50 85 121 154 207 240 217 39 305 320 317 320 295 261 238 307 187 140 151 145 147 152 158 160 154 148 144 142 140 139 138 137 137 140 142 140 139 137 137 138 141 139 134 137 138 136 133 133
66 15 34 111 233 256 240 317 41 349 328 32 351 302 314 164 184 208 140 149 148 149 154 160 162 157 153 148 147 145 144 143 142 142 144 144 141 139 139 138 139 141 140 139 142 143 143 137 138
38 55 67 269 256 257 260 268 349 310 285 318 310 277 254 351 89 136 152 153 152 152 156 160 163 158 156 153 151 150 149 148 147 147 148 146 144 144 142 142 143 143 141 142 148 151 152 144 159
48 84 70 246 252 260 297 276 317 266 270 317 315 275 251 55 108 141 160 164 157 152 153 161 163 159 157 156 154 155 155 154 152 153 152 150 150 150 150 148 146 145 144 146 153 159 162 170 188
115 95 221 267 270 299 292 345 356 324 307 298 293 298 297 331 136 146 150 156 154 151 151 161 163 163 158 159 159 158 158 158 157 156 157 156 156 156 155 154 152 150 148 151 159 174 189 196 215
108 103 210 254 286 286 326 342 290 322 302 307 4 314 309 282 145 138 134 146 148 160 160 160 160 164 157 159 163 160 159 161 162 159 160 161 159 159 160 154 157 156 158 163 175 191 200 211 225
111 35 276 279 320 277 324 329 307 288 264 304 284 295 278 291 148 148 137 149 156 168 169 167 163 159 157 154 168 164 164 165 166 163 162 158 158 161 163 161 163 166 169 174 189 200 214 228 244
104 106 245 215 289 307 308 302 303 305 299 293 299 302 329 132 163 164 168 177 177 177 177 173 169 164 160 161 166 162 165 165 164 162 162 157 162 157 157 168 168 170 175 183 201 211 223 244 286
44 195 274 305 296 299 306 305 301 298 287 304 300 302 313 116 244 241 189 184 188 174 176 178 168 168 168 165 164 165 167 163 165 165 166 172 170 173 148 150 170 169 185 192 203 221 229 239 247
312 270 267 289 313 317 303 297 296 286 300 295 276 273 262 217 196 227 228 218 195 182 182 178 177 171 170 159 163 166 171 171 174 177 174 174 173 181 164 166 169 183 176 190 198 219 234 246 268
210 254 280 280 282 278 282 287 274 281 307 305 298 290 263 235 215 188 212 203 215 220 182 185 182 180 172 163 164 164 173 175 175 174 182 170 172 180 159 174 183 184 166 192 213 218 224 256 259
242 260 284 290 308 275 284 291 303 294 353 347 341 321 304 251 219 202 166 201 200 204 218 183 185 185 177 170 167 169 173 174 174 179 182 172 170 170 177 179 192 185 181 195 210 216 216 235 242
278 310 325 307 288 287 294 294 291 303 318 331 315 318 325 315 294 214 191 185 188 199 196 211 193 183 181 174 169 175 176 173 176 179 175 174 171 170 174 178 188 196 190 198 203 230 226 239 243
357 34 334 274 294 281 323 291 265 309 318 317 304 313 310 297 269 258 249 218 201 183 182 186 192 191 182 177 175 179 182 176 176 176 174 180 182 173 169 177 194 187 179 180 188 183 233 248 247
2 283 288 297 287 287 236 292 286 299 295 302 285 298 302 306 301 262 242 236 217 189 183 176 183 187 185 177 174 174 179 185 184 175 175 185 188 178 180 187 194 175 177 188 191 184 199 228 285
276 295 278 282 288 295 283 277 274 276 284 288 295 296 297 301 292 282 236 243 227 191 181 177 182 177 178 173 169 171 171 187 186 187 180 177 188 188 191 193 188 172 168 178 160 190 212 144 142
263 246 259 289 280 306 281 286 284 277 279 282 284 294 285 283 287 279 246 229 231 185 165 171 164 177 172 176 175 178 183 183 179 185 186 179 181 192 190 197 191 177 191 191 184 176 166 148 149
285 301 292 281 286 285 291 288 283 271 265 243 280 296 291 284 298 300 312 218 201 184 179 174 172 174 181 189 196 185 173 188 177 177 186 192 189 190 192 194 201 190 183 177 167 162 139 118 183
280 258 285 297 299 271 269 281 279 273 256 279 253 260 282 258 281 304 319 212 195 187 185 182 180 178 184 191 179 105 131 101 131 182 191 196 195 195 192 186 198 187 189 188 177 171 167 149 78
314 279 294 298 313 288 94 291 276 282 277 261 267 291 302 313 305 308 322 329 250 193 190 186 183 185 186 181 179 174 179 182 196 195 192 189 189 191 190 189 185 185 183 182 194 177 163 134 145
254 316 287 267 276 308 309 233 298 316 283 272 335 355 331 352 352 335 331 331 286 255 189 189 191 188 187 184 186 183 182 195 176 177 186 196 190 194 193 195 186 188 188 196 186 156 167 164 146
308 316 287 354 76 355 268 53 315 335 329 9 2 355 339 357 341 344 349 340 305 263 224 187 181 192 187 185 195 192 189 185 169 174 183 193 196 193 195 199 200 194 191 192 193 168 169 176 135
0 12 336 351 2 233 324 330 246 351 5 0 346 352 351 358 355 354 1 343 344 282 235 198 183 181 183 183 193 195 194 193 191 181 182 184 190 194 197 190 196 193 193 190 178 166 167 166 161
308 223 170 281 277 294 312 238 262 15 347 336 338 349 360 1 359 356 356 345 338 348 229 211 192 193 184 182 190 197 194 191 189 190 181 191 196 199 191 190 196 196 191 183 183 179 167 156 156
326 31 303 273 273 277 248 262 304 326 343 349 354 352 353 352 353 347 358 349 350 351 331 229 199 203 191 193 194 199 197 196 193 172 184 186 191 185 183 190 195 196 188 185 175 186 167 155 160
132 157 290 300 285 277 271 255 261 339 351 349 346 341 348 348 347 344 345 341 351 350 346 15 339 257 216 197 193 195 203 199 196 185 187 182 187 176 175 186 193 194 203 183 184 167 155 152 158
359 311 254 260 233 276 308 277 203 13 347 340 337 334 339 344 339 333 325 334 339 358 353 6 15 19 351 274 225 206 196 201 201 202 191 181 173 181 183 190 194 193 197 191 183 164 153 147 141
177 243 259 266 264 247 262 268 99 24 348 338 336 333 335 337 331 339 317 335 351 354 343 4 0 2 359 347 278 224 213 210 205 198 195 178 181 187 189 191 196 200 189 190 184 160 160 153 149